GSAT0201 (GALILEO 5)

Last updated on Wed Aug 19 2026 00:02:49 GMT+0000 (Coordinated Universal Time)

1 40128U 14050A 26229.32223355 -.00000035 00000+0 00000+0 0 9998 2 40128 48.8102 270.9239 1682914 181.7661 177.5882 1.85519775 79454
UTC large
Height (km)
Speed (km/s)
/
Latitude / Longitude
Inclination (degrees)
Orbital Period (minutes)
Azimuth
Elevation
Range (km)
Doppler Factor

Next 0 passes for location: London (51.5072 / 0.1276)

No passes found over London.
GSAT0201 (GALILEO 5)